EW1336 Weather Reports


Display with metric or nautical units.
time (UTC)temp
F
wind
direction
speed
MPH
gust
MPH
rain 1hr
in
rain 24hr
in
rain mn
in
humidity
%
barometer
mb
20260902004509 55 274 0.0 5.0 0.00 0.00 0.00 40 1005.4
20260902003010 56 281 0.0 4.0 0.00 0.00 0.00 41 1005.4
20260902001516 57 252 0.0 6.0 0.00 0.00 0.00 37 1005.4
20260902000021 57 305 0.0 4.0 0.00 0.00 0.00 38 1005.4
20260901234507 59 242 0.0 4.0 0.00 0.00 0.00 38 1005.4
20260901233006 60 276 0.0 4.0 0.00 0.00 0.00 35 1005.4
20260901231509 59 255 0.0 3.0 0.00 0.00 0.00 37 1005.4
20260901230002 57 260 0.0 5.0 0.00 0.00 0.00 40 1005.1
20260901224502 58 226 1.0 4.0 0.00 0.00 0.00 39 1005.2
20260901223002 58 240 0.0 5.0 0.00 0.00 0.00 38 1005.1
20260901221501 59 248 0.0 2.0 0.00 0.00 0.00 38 1005.3
20260901220101 59 259 0.0 5.0 0.00 0.00 0.00 37 1005.2
20260901214602 60 241 0.0 3.0 0.00 0.00 0.00 35 1005.1
20260901213059 60 249 0.0 6.0 0.00 0.00 0.00 32 1005.2
20260901211558 62 262 1.0 4.0 0.00 0.00 0.00 27 1005.3
20260901210110 63 283 1.0 4.0 0.00 0.00 0.00 28 1005.1
20260901204555 62 253 0.0 4.0 0.00 0.00 0.00 30 1005.2
20260901203109 61 186 0.0 5.0 0.00 0.00 0.00 35 1005.2
20260901201555 61 339 0.0 4.0 0.00 0.00 0.00 36 1005.4
20260901200058 61 274 1.0 4.0 0.00 0.00 0.00 34 1005.4
20260901194552 61 263 0.0 3.0 0.00 0.00 0.00 35 1005.5
20260901193049 61 222 0.0 2.0 0.00 0.00 0.00 36 1005.6
20260901191559 61 255 0.0 4.0 0.00 0.00 0.00 35 1005.8
20260901190105 60 225 1.0 3.0 0.00 0.00 0.00 35 1006.0
20260901184547 61 255 0.0 3.0 0.00 0.00 0.00 34 1005.8
20260901183045 60 281 0.0 3.0 0.00 0.00 0.00 33 1005.7
20260901181543 60 219 0.0 5.0 0.00 0.00 0.00 34 1005.8
20260901180042 59 270 0.0 2.0 0.00 0.00 0.00 36 1005.6
20260901174539 58 276 0.0 2.0 0.00 0.00 0.00 38 1005.6
20260901173037 57 271 0.0 3.0 0.00 0.00 0.00 38 1005.5
20260901171534 56 273 0.0 4.0 0.00 0.00 0.00 43 1005.3
20260901170032 55 262 0.0 4.0 0.00 0.00 0.00 45 1005.2
20260901164528 55 278 0.0 3.0 0.00 0.00 0.00 47 1005.1
20260901163026 54 226 0.0 2.0 0.00 0.00 0.00 48 1005.4
20260901161521 53 271 0.0 1.0 0.00 0.00 0.00 50 1005.3
20260901160018 52 15 0.0 1.0 0.00 0.00 0.00 51 1005.2
20260901154524 51 266 0.0 1.0 0.00 0.00 0.00 53 1005.2
20260901153028 50 210 0.0 0.0 0.00 0.00 0.00 54 1005.3
20260901151619 48 78 0.0 0.0 0.00 0.00 0.00 56 1005.5
20260901150027 46 41 0.0 1.0 0.00 0.00 0.00 59 1005.6
20260901144513 46 231 0.0 0.0 0.00 0.00 0.00 57 1005.3
20260901143010 48 224 0.0 0.0 0.00 0.00 0.00 53 1005.2
20260901141509 48 278 0.0 0.0 0.00 0.00 0.00 50 1005.1
20260901140010 48 273 0.0 0.0 0.00 0.00 0.00 49 1005.1
20260901134511 48 259 0.0 0.0 0.00 0.00 0.00 47 1005.1
20260901133010 49 259 0.0 0.0 0.00 0.00 0.00 46 1005.1
20260901131502 49 226 0.0 0.0 0.00 0.00 0.00 45 1005.0
20260901130101 49 274 0.0 1.0 0.00 0.00 0.00 44 1005.3
20260901130000 49 271 0.0 1.0 0.00 0.00 0.00 43 1005.3
20260901124559 50 278 0.0 1.0 0.00 0.00 0.00 41 1005.3
20260901123057 50 274 0.0 2.0 0.00 0.00 0.00 41 1005.5
20260901121557 50 281 0.0 1.0 0.00 0.00 0.00 41 1005.4
20260901120118 50 251 0.0 1.0 0.00 0.00 0.00 43 1005.3
20260901114554 50 273 0.0 1.0 0.00 0.00 0.00 44 1005.4
20260901113058 50 255 0.0 2.0 0.00 0.00 0.00 46 1005.3
20260901111552 50 288 0.0 1.0 0.00 0.00 0.00 48 1005.4
20260901110056 50 249 0.0 0.0 0.00 0.00 0.00 51 1005.4
20260901104552 50 208 0.0 1.0 0.00 0.00 0.00 52 1005.3
20260901103048 50 212 0.0 0.0 0.00 0.00 0.00 50 1005.3
20260901101552 51 211 0.0 0.0 0.00 0.00 0.00 50 1005.4
20260901100045 51 211 0.0 0.0 0.00 0.00 0.00 49 1005.6
20260901094544 51 276 0.0 1.0 0.00 0.00 0.00 49 1005.7
20260901093050 51 269 0.0 1.0 0.00 0.00 0.00 50 1005.9
20260901091556 50 233 0.0 0.0 0.00 0.00 0.00 50 1005.8
20260901090041 50 60 0.0 0.0 0.00 0.00 0.00 49 1005.9
20260901084539 50 53 0.0 0.0 0.00 0.00 0.00 47 1005.9
20260901083038 50 53 0.0 0.0 0.00 0.00 0.00 48 1005.8
20260901081536 51 61 0.0 0.0 0.00 0.00 0.00 47 1005.8
20260901080035 51 60 0.0 0.0 0.00 0.00 0.00 46 1005.9
20260901074535 52 57 0.0 0.0 0.00 0.00 0.00 45 1005.9
20260901073033 52 23 0.0 0.0 0.00 0.00 0.00 47 1005.9
20260901071531 52 23 0.0 0.0 0.00 0.00 0.00 48 1005.8
20260901070025 53 20 0.0 0.0 0.00 0.00 0.00 48 1005.9
20260901064524 53 20 0.0 0.0 0.00 0.00 0.00 48 1006.0
20260901063024 53 19 0.0 0.0 0.00 0.00 0.00 49 1006.0
20260901061524 53 19 0.0 0.0 0.00 0.00 0.00 50 1006.1
20260901060024 54 259 0.0 0.0 0.00 0.00 0.00 49 1006.0
20260901054522 54 245 0.0 0.0 0.00 0.00 0.00 49 1006.1
20260901053022 54 262 0.0 1.0 0.00 0.00 0.00 50 1006.1
20260901051521 54 203 0.0 0.0 0.00 0.00 0.00 52 1006.2
20260901050021 54 203 0.0 0.0 0.00 0.00 0.00 53 1006.2
20260901044520 53 148 0.0 0.0 0.00 0.00 0.00 55 1006.2
20260901043026 53 145 0.0 0.0 0.00 0.00 0.00 55 1006.2
20260901041520 53 145 0.0 0.0 0.00 0.00 0.00 54 1006.2
20260901040020 54 144 0.0 0.0 0.00 0.00 0.00 53 1006.0
20260901034518 54 143 0.0 1.0 0.00 0.00 0.00 52 1005.7
20260901033018 55 158 0.0 1.0 0.00 0.00 0.00 52 1005.6
20260901031529 56 210 0.0 0.0 0.00 0.00 0.00 50 1005.2
20260901030017 56 221 0.0 0.0 0.00 0.00 0.00 50 1005.2
20260901024516 57 210 0.0 0.0 0.00 0.00 0.00 49 1005.2
20260901023024 58 252 0.0 1.0 0.00 0.00 0.00 48 1005.2
20260901021518 59 221 0.0 3.0 0.00 0.00 0.00 48 1005.2
20260901020027 60 256 0.0 1.0 0.00 0.00 0.00 47 1005.1
20260901014516 60 277 0.0 1.0 0.00 0.00 0.00 45 1005.1
20260901013026 62 267 0.0 1.0 0.00 0.00 0.00 45 1004.9
20260901011515 63 270 0.0 2.0 0.00 0.00 0.00 43 1004.9
20260901010018 64 266 0.0 2.0 0.00 0.00 0.00 44 1004.7